This demonstration page uses our WeatherBlox Daily Observations layout. Learn more.

Left ArrowRight Arrow

53.62937, 11.41316

Hourly Observations for February 28, 2020

Temp ( °F °C ) Dew Point ( °F °C ) Humidity (%) Winds ( mph kmh ) Pressure ( in mb ) Visibility ( mi km ) Precip ( " mm )
6:50 am 06:50 Mostly Cloudy 36 2 34 1 93 93 W 9 15 29.77 1008 30 48 N/A
7:20 am 07:20 Mostly Sunny 36 2 34 1 93 93 W 9 15 29.77 1008 30 48 N/A
7:50 am 07:50 Partly Cloudy 36 2 34 1 93 93 W 9 15 29.80 1009 30 48 N/A
8:20 am 08:20 Mostly Sunny 36 2 34 1 93 93 WSW 8 13 29.80 1009 30 48 N/A
8:50 am 08:50 Mostly Sunny 37 3 34 1 87 87 WSW 10 17 29.80 1009 7 11 N/A
9:20 am 09:20 Partly Cloudy with Showers Nearby 39 4 36 2 87 87 W 13 20 29.83 1010 30 48 N/A
9:50 am 09:50 Partly Cloudy 41 5 36 2 81 81 W 8 13 29.83 1010 30 48 N/A
10:20 am 10:20 Partly Cloudy 41 5 36 2 81 81 W 13 20 29.83 1010 30 48 N/A
10:50 am 10:50 Partly Cloudy 43 6 36 2 76 76 W 15 24 29.83 1010 30 48 N/A
11:20 am 11:20 Partly Cloudy 45 7 37 3 76 76 W 16 26 29.86 1011 30 48 N/A
11:50 am 11:50 Partly Cloudy 45 7 36 2 71 71 W 15 24 29.86 1011 30 48 N/A
12:20 pm 12:20 Partly Cloudy 45 7 36 2 71 71 W 16 26 29.86 1011 30 48 N/A
12:50 pm 12:50 Partly Cloudy 46 8 32 0 57 57 W 20 31 29.86 1011 30 48 N/A
1:20 pm 13:20 Partly Cloudy 45 7 32 0 61 61 W 18 30 29.86 1011 30 48 N/A
1:50 pm 13:50 Mostly Sunny 46 8 34 1 62 62 W 13 20 29.86 1011 30 48 N/A
2:20 pm 14:20 Mostly Sunny 46 8 32 0 57 57 W 16 26 29.86 1011 30 48 N/A
2:50 pm 14:50 Mostly Sunny 46 8 32 0 57 57 W 14 22 29.86 1011 30 48 N/A
3:20 pm 15:20 Mostly Sunny 45 7 30 -1 57 57 W 14 22 29.86 1011 30 48 N/A
3:50 pm 15:50 Mostly Sunny 45 7 30 -1 57 57 WSW 16 26 29.86 1011 30 48 N/A
4:20 pm 16:20 Mostly Sunny 45 7 32 0 61 61 WSW 12 19 29.86 1011 30 48 N/A
4:50 pm 16:50 Mostly Sunny 45 7 32 0 61 61 WSW 10 17 29.86 1011 30 48 N/A
5:20 pm 17:20 Mostly Sunny 45 7 30 -1 57 57 WSW 10 17 29.86 1011 30 48 N/A
5:50 pm 17:50 Mostly Sunny 43 6 32 0 66 66 SW 8 13 29.83 1010 7 11 N/A
6:20 pm 18:20 Mostly Clear 41 5 30 -1 66 66 SSW 8 13 29.83 1010 7 11 N/A
6:50 pm 18:50 Mostly Clear 41 5 30 -1 66 66 SSW 6 9 29.83 1010 30 48 N/A
7:20 pm 19:20 Mostly Clear 41 5 30 -1 66 66 SSW 7 11 29.83 1010 7 11 N/A
7:50 pm 19:50 Mostly Clear 41 5 30 -1 66 66 SSW 8 13 29.80 1009 7 11 N/A

Powered by AerisWeather